Regional Weather Roundup
Issued by NWS

Home | Current Version | Previous Version | Graphics & Text | Print | Product List | Glossary On
Versions: 1 2 3 4 5 6 7 8 9 10 11 12 13 14 15 16 17 18 19 20 21 22 23 24 25 26 27 28 29 30 31 32 33 34 35 36 37 38 39 40 41 42 43 44 45 46 47 48 49 50
000
ASUS43 KDTX 240410
RWRMI
MICHIGAN HOURLY REGIONAL WEATHER ROUNDUP
NATIONAL WEATHER SERVICE DETROIT/PONTIAC MI
1200 AM EDT TUE APR 24 2018

NOTE: "FAIR" INDICATES FEW OR NO CLOUDS BELOW 12,000 FEET WITH NO
SIGNIFICANT WEATHER AND/OR OBSTRUCTION TO VISIBILITY.

MIZ047>049-052>055-059>063-066>070-074>076-081>083-240500-
SOUTHEAST LOWER MICHIGAN

CITY           SKY/WX    TMP DP  RH WIND       PRES   REMARKS
ADRIAN         CLOUDY    54  44  69 S8        30.17F
ALMA           FAIR      58  49  71 S15       30.15R
ANN ARBOR      CLOUDY    55  45  68 S5        30.17S
BAD AXE        FAIR      50  33  52 S5        30.17R
CARO           FAIR      59  39  47 S6        30.15S
DETROIT CITY   MOCLDY    56  44  64 S5        30.17F
DETROIT        CLOUDY    55  43  63 CALM      30.18S
FLINT          FAIR      57  46  66 S7        30.15F
GROSSE ILE     CLOUDY    49  44  83 CALM      30.17F
HILLSDALE      RAIN      52  43  71 SE12G18   30.16S
HOWELL         MOCLDY    57  46  66 S7        30.15F

CITY           SKY/WX    TMP DP  RH WIND       PRES   REMARKS
JACKSON        CLOUDY    56  45  66 S10       30.16S
LAMBERTVILLE   CLOUDY    58  44  59 CALM      30.15F
LANSING        CLOUDY    58  47  66 S14       30.15F
LAPEER         FAIR      56  40  54 SW3       30.16F
MASON          MOCLDY    58  44  59 S9        30.15F
MONROE         CLOUDY    55  45  68 CALM      30.16F
PONTIAC        CLOUDY    57  45  64 S3        30.16F
PORT HOPE        N/A     47  33  58 SE7       30.14S
PORT HURON     FAIR      54  41  62 SW3       30.18S
TRI CITIES     FAIR      46  39  76 NE5       30.15S
MIDLAND        FAIR      49  36  61 CALM      30.14S
TROY           FAIR      58  44  58 S3        30.18F
SAGINAW HB     FAIR      46  41  81 CALM      30.14S
$$
MIZ043>046-050>051-056>058-064>065-071>073-077>080-240500-
SOUTHWEST LOWER MICHIGAN

CITY           SKY/WX    TMP DP  RH WIND       PRES   REMARKS
BATTLE CREEK   CLOUDY    56  47  71 S13       30.14F
BENTON HARBOR  CLOUDY    58  50  75 SE8       30.11F
BIG RAPIDS     FAIR      55  37  50 CALM      30.11F
COLDWATER      CLOUDY    54  46  73 S8        30.15F
FREMONT        FAIR      60  37  40 S6        30.10S
HOLLAND        FAIR      59  49  69 S7        30.11F
GRAND RAPIDS   CLOUDY    59  49  69 S7        30.12F
IONIA          FAIR      59  47  65 S6        30.13S
KALAMAZOO      CLOUDY    57  47  69 S10G17    30.13F
LUDINGTON      FAIR      49  30  48 CALM      30.10S
MARSHALL       CLOUDY    55  47  73 SE7       30.15S
MOUNT PLEASANT FAIR      55  38  53 E3        30.14R
MUSKEGON       FAIR      58  44  60 S7        30.11S
SOUTH HAVEN    CLOUDY    59  49  69 SE3       30.10F
$$
MIZ016>042-240500-
NORTHERN LOWER MICHIGAN

CITY           SKY/WX    TMP DP  RH WIND       PRES   REMARKS
ALPENA         FAIR      37  30  75 CALM      30.17F
BEAVER ISLAND  FAIR      40  28  63 E3        30.15F
CADILLAC       FAIR      42  28  56 CALM      30.12F
CHARLEVOIX     FAIR      43  28  55 CALM      30.17S
FRANKFORT      FAIR      45  28  51 CALM      30.12F
GAYLORD        FAIR      43  27  53 CALM      30.14F
HARBOR SPRINGS FAIR      41  30  66 NE6       30.15S
HOUGHTON LAKE  FAIR      51  32  48 E7        30.14F
MANISTEE       FAIR      47  27  45 E7        30.11F
OSCODA         FAIR      40  28  61 CALM      30.16S
PELLSTON       FAIR      33  28  81 CALM      30.16F
ROGERS CITY    FAIR      35  29  80 CALM      30.18S
TRAVERSE CITY  FAIR      40  32  73 CALM      30.13S
$$
MIZ007>008-015-240500-
EASTERN UPPER MICHIGAN

CITY           SKY/WX    TMP DP  RH WIND       PRES   REMARKS
KINROSS        FAIR      42  22  44 S5        30.16F
MACKINAC ISLAN FAIR      47  26  42 SE14      30.15F
NEWBERRY       FAIR      42  20  42 CALM      30.15S
S. S. MARIE    FAIR      46  23  40 NE3       30.16F
MUNISING         N/A     42  28  57 S9        30.13S
$$
MIZ004>006-011>014-085-240500-
CENTRAL UPPER MICHIGAN

CITY           SKY/WX    TMP DP  RH WIND       PRES   REMARKS
MANISTIQUE     FAIR      41  23  48 SE5       30.13F
ESCANABA       FAIR      32  26  78 CALM      30.15S
SAWYER-GWINN   FAIR      44  25  48 CALM      30.14S
$$
MIZ001>003-009>011-084-240500-
WESTERN UPPER MICHIGAN

CITY           SKY/WX    TMP DP  RH WIND       PRES   REMARKS
IRON MOUNTAIN  FAIR      43  27  53 CALM      30.12S
HOUGHTON       FAIR      39  27  62 CALM      30.10F
COPPER HARBOR    N/A     44  25  47 VRB7      30.09F
IRONWOOD       FAIR      38  33  82 CALM      30.12S
$$

ABBREVIATIONS USED IN REMARKS
   TC - TEMPERATURE IN CELSIUS
  WCI - WIND CHILL INDEX
   HX - HEAT INDEX
  VSB - VISIBILITY




USA.gov is the U.S. government's official web portal to all federal, state and local government web resources and services.